Date String (YYYY-MM-DD hh:mm:ss) UTC,Instrument flags,Ambient pressure (hPa),Sample flow (lpm),Bypass flow (lpm),Sample temperature (°C),Ambient temperature (°C),ASC tube jacket temperature (°C),LED temperature (°C),Box temperature (°C),Sample RH (%),Span deviation,Mass concentration (μg/m³),Mass concentration (μg/m³),Mass concentration (μg/m³)
DateTimeUTC,F1_M11,P_M11,Q1_M11,Q2_M11,T1_M11,T2_M11,T3_M11,T4_M11,T5_M11,U1_M11,ZSPAN_M11,X0_M11,X2_M11,X1_M11
2023-01-03 00:00:00,,0815.8,4.99,0.00,22.8,21.4,00.0,31.5,24.5,15.0,-000.9,0008.54,0006.19,0005.92
2023-01-03 00:01:00,,0815.8,5.05,0.00,22.8,21.4,00.0,31.6,24.5,15.0,-001.1,0008.56,0006.21,0005.93
2023-01-03 00:02:00,,0815.8,4.97,0.00,22.7,21.4,00.0,31.6,24.5,15.0,-001.2,0008.59,0006.20,0005.94
2023-01-03 00:03:00,,0815.8,5.05,0.00,22.7,21.4,00.0,31.6,24.5,15.0,-001.5,0008.59,0006.16,0005.92
2023-01-03 00:04:00,,0815.8,5.04,0.00,22.7,21.3,00.0,31.5,24.5,15.1,-001.0,0008.48,0006.12,0005.91
2023-01-03 00:05:00,,0815.8,4.98,0.00,22.7,21.3,00.0,31.5,24.5,15.1,-000.9,0008.38,0006.10,0005.90
2023-01-03 00:06:00,,0815.8,5.02,0.00,22.7,21.3,00.0,31.6,24.5,15.1,-000.9,0008.32,0006.07,0005.89
2023-01-03 00:07:00,,0815.8,5.00,0.00,22.7,21.3,00.0,31.5,24.5,15.1,-001.1,0008.28,0006.05,0005.89
2023-01-03 00:08:00,,0815.9,5.00,0.00,22.7,21.3,00.0,31.5,24.5,15.1,-001.2,0008.25,0006.04,0005.88
2023-01-03 00:09:00,,0815.9,4.98,0.00,22.7,21.2,00.0,31.5,24.5,15.1,-001.5,0008.19,0006.01,0005.87
2023-01-03 00:10:00,,0815.9,5.01,0.00,22.7,21.2,00.0,31.5,24.4,15.1,-001.7,0008.25,0006.04,0005.88
2023-01-03 00:11:00,,0815.9,5.01,0.00,22.7,21.2,00.0,31.5,24.4,15.1,-001.8,0008.21,0006.06,0005.89
2023-01-03 00:12:00,,0815.9,5.00,0.00,22.6,21.2,00.0,31.5,24.4,15.1,-001.6,0008.21,0006.06,0005.90
2023-01-03 00:13:00,,0815.9,4.99,0.00,22.6,21.2,00.0,31.5,24.4,15.2,-001.7,0008.25,0006.09,0005.91
2023-01-03 00:14:00,,0815.9,5.00,0.00,22.6,21.2,00.0,31.5,24.4,15.2,-001.7,0008.22,0006.12,0005.94
2023-01-03 00:15:00,,0815.9,4.99,0.00,22.6,21.2,00.0,31.5,24.4,15.2,-001.6,0008.28,0006.15,0005.96
2023-01-03 00:16:00,,0815.9,5.00,0.00,22.6,21.1,00.0,31.5,24.4,15.2,-001.7,0008.33,0006.18,0005.97
2023-01-03 00:17:00,,0815.9,5.00,0.00,22.6,21.1,00.0,31.5,24.4,15.2,-001.6,0008.34,0006.19,0005.98
2023-01-03 00:18:00,,0816.0,5.00,0.00,22.6,21.1,00.0,31.5,24.3,15.2,-001.6,0008.36,0006.21,0006.00
2023-01-03 00:19:00,,0815.9,5.00,0.00,22.6,21.1,00.0,31.5,24.3,15.2,-001.7,0008.40,0006.24,0006.02
2023-01-03 00:20:00,,0816.0,5.00,0.00,22.6,21.1,00.0,31.5,24.3,15.2,-001.5,0008.43,0006.25,0006.02
2023-01-03 00:21:00,,0816.0,4.99,0.00,22.6,21.1,00.0,31.4,24.3,15.2,-000.9,0008.36,0006.22,0006.00
2023-01-03 00:22:00,,0816.0,5.02,0.00,22.6,21.1,00.0,31.4,24.3,15.3,-000.8,0008.34,0006.20,0005.99
2023-01-03 00:23:00,,0816.0,5.01,0.00,22.6,21.1,00.0,31.4,24.3,15.3,-000.6,0008.31,0006.19,0005.97
2023-01-03 00:24:00,,0816.0,5.00,0.00,22.5,21.1,00.0,31.4,24.3,15.3,-000.5,0008.27,0006.17,0005.97
2023-01-03 00:25:00,,0816.0,4.99,0.00,22.5,21.1,00.0,31.4,24.3,15.3,-000.2,0008.25,0006.17,0005.97
2023-01-03 00:26:00,,0816.0,5.00,0.00,22.5,21.1,00.0,31.4,24.3,15.3,0000.3,0008.23,0006.17,0005.97
2023-01-03 00:27:00,,0816.0,5.00,0.00,22.5,21.1,00.0,31.4,24.3,15.3,0000.7,0008.20,0006.17,0005.98
2023-01-03 00:28:00,,0816.0,5.00,0.00,22.5,21.1,00.0,31.4,24.3,15.3,0000.6,0008.19,0006.17,0005.98
2023-01-03 00:29:00,,0816.0,5.00,0.00,22.5,21.1,00.0,31.4,24.3,15.3,0000.6,0008.17,0006.17,0005.98
2023-01-03 00:30:00,,0816.1,5.00,0.00,22.5,21.1,00.0,31.4,24.3,15.3,0000.9,0008.15,0006.16,0005.98
2023-01-03 00:31:00,,0816.0,5.00,0.00,22.5,21.0,00.0,31.4,24.3,15.3,0000.9,0008.11,0006.15,0005.98
2023-01-03 00:32:00,,0816.0,5.00,0.00,22.5,21.0,00.0,31.4,24.3,15.3,0000.5,0008.09,0006.15,0005.98
2023-01-03 00:33:00,,0816.1,5.00,0.00,22.5,21.0,00.0,31.4,24.3,15.3,0000.5,0008.08,0006.14,0005.98
2023-01-03 00:34:00,,0816.1,5.00,0.00,22.5,21.0,00.0,31.3,24.3,15.3,0000.4,0008.23,0006.13,0005.98
2023-01-03 00:35:00,,0816.1,5.00,0.00,22.5,21.0,00.0,31.3,24.3,15.3,0000.7,0008.71,0006.12,0005.96
2023-01-03 00:36:00,,0816.1,5.00,0.00,22.5,21.1,00.0,31.3,24.3,15.3,0000.8,0008.70,0006.10,0005.94
2023-01-03 00:37:00,,0816.1,5.00,0.00,22.5,21.7,00.0,31.3,24.4,15.3,0000.5,0008.63,0006.05,0005.91
2023-01-03 00:38:00,,0816.1,5.00,0.00,22.6,22.5,00.0,31.3,24.7,15.2,0000.2,0008.56,0005.99,0005.87
2023-01-03 00:39:00,,0816.1,5.00,0.00,22.7,22.8,00.0,31.3,24.8,15.1,0000.3,0008.50,0005.95,0005.84
2023-01-03 00:40:00,,0816.1,4.99,0.00,22.7,22.5,00.0,31.4,24.8,15.1,0000.6,0008.47,0005.92,0005.82
2023-01-03 00:41:00,,0816.0,5.00,0.00,22.8,22.3,00.0,31.4,24.7,15.0,0000.2,0008.47,0005.89,0005.78
2023-01-03 00:42:00,,0816.1,5.00,0.00,22.7,22.0,00.0,31.4,24.6,15.1,0000.0,0008.51,0005.89,0005.77
2023-01-03 00:43:00,,0816.1,5.00,0.00,22.7,21.9,00.0,31.5,24.6,15.1,0000.0,0008.50,0005.88,0005.75
2023-01-03 00:44:00,,0816.1,5.00,0.00,22.7,21.8,00.0,31.5,24.6,15.1,0000.0,0008.47,0005.86,0005.72
2023-01-03 00:45:00,,0816.1,5.01,0.00,22.7,21.7,00.0,31.5,24.5,15.1,0000.0,0008.46,0005.84,0005.71
2023-01-03 00:46:00,,0816.1,5.00,0.00,22.7,21.6,00.0,31.5,24.5,15.1,0000.3,0007.98,0005.83,0005.69
2023-01-03 00:47:00,,0816.1,5.00,0.00,22.7,21.5,00.0,31.5,24.5,15.1,0000.2,0007.74,0005.79,0005.67
2023-01-03 00:48:00,,0816.0,5.00,0.00,22.7,21.5,00.0,31.5,24.5,15.1,-000.0,0007.74,0005.79,0005.66
2023-01-03 00:49:00,,0816.1,5.00,0.00,22.7,21.4,00.0,31.5,24.5,15.1,0000.3,0007.86,0005.79,0005.66
2023-01-03 00:50:00,,0816.0,5.01,0.00,22.7,21.4,00.0,31.5,24.5,15.1,0000.5,0008.01,0005.79,0005.64
2023-01-03 00:51:00,,0816.0,5.00,0.00,22.7,21.3,00.0,31.5,24.4,15.1,-000.1,0007.95,0005.73,0005.58
2023-01-03 00:52:00,,0816.0,5.00,0.00,22.7,21.3,00.0,31.5,24.4,15.0,0000.1,0007.87,0005.67,0005.53
2023-01-03 00:53:00,,0816.0,5.00,0.00,22.7,21.3,00.0,31.5,24.4,15.0,0000.3,0007.74,0005.58,0005.46
2023-01-03 00:54:00,,0816.1,5.00,0.00,22.6,21.2,00.0,31.5,24.4,15.0,0000.9,0007.69,0005.53,0005.40
2023-01-03 00:55:00,,0816.0,5.00,0.00,22.6,21.2,00.0,31.5,24.4,15.0,0001.0,0007.62,0005.46,0005.34
2023-01-03 00:56:00,,0816.0,5.01,0.00,22.6,21.2,00.0,31.5,24.4,15.0,0001.4,0007.57,0005.40,0005.26
2023-01-03 00:57:00,,0816.1,5.00,0.00,22.6,21.2,00.0,31.5,24.3,15.0,0000.1,0007.49,0005.30,0005.16
2023-01-03 00:58:00,,0816.1,5.00,0.00,22.6,21.1,00.0,31.5,24.3,15.0,0000.0,0007.45,0005.23,0005.07
2023-01-03 00:59:00,,0816.1,5.00,0.00,22.6,21.1,00.0,31.5,24.3,15.0,0000.0,0007.33,0005.13,0004.99
